Weather observations for the past three days for
Frelighsburg
Imperial (Metric)
Date Time (edt) Wind (mph) Vis. (mi.) Weather Sky Cond. Temperature (ºF) Relative Humidity Wind Chill (°F) Heat Index (°F) Pressure Precipitation (in)
Air Dwpt 6 hour altimeter (in) sea level (mb) 1 hr 3 hr 6 hr
Max. Min.
06 08:00 NW 3 0.00 NULL NULL 42.8 40.3 91% 0 1010.2 0.02
06 07:00 W 2 0.00 NULL NULL 43.7 41.9 93% 0 1009.5
06 06:00 SW 1 0.00 NULL NULL 43.5 41.7 93% 0 1009.5
06 05:00 S 1 0.00 NULL NULL 43.9 42.3 94% 0 1009.7
06 04:00 W 1 0.00 NULL NULL 45.1 42.6 91% 0 1009.6
06 03:00 Calm 0.00 NULL NULL 45.1 41.9 88% 0 1009.3 0.04
06 02:00 SW 2 0.00 NULL NULL 46.4 44.6 93% 0 1009.5 0.08
06 01:00 SW 1 0.00 NULL NULL 46.8 45 93% 0 1009.6 0.14
06 00:00 NW 2 0.00 NULL NULL 48.4 43.5 83% 0 1008.6 0.07
05 23:00 W 3 0.00 NULL NULL 52 45.5 79% 0 1008.1 0.05
05 22:00 W 7 0.00 NULL NULL 58.5 41.9 54% 0 1007.4
05 21:00 NW 3 0.00 NULL NULL 60.1 49.3 68% 0 1006.2
05 20:00 S 7 0.00 NULL NULL 63.9 49.1 59% 0 1004.6
05 19:00 S 6 0.00 NULL NULL 61.3 53.1 74% 0 1003.7
05 18:00 S 7 0.00 NULL NULL 58.1 54.9 89% 0 1003.9 0.01
05 17:00 S 5 0.00 NULL NULL 57.7 55.2 91% 0 1003.3 0.05
05 16:00 SW 7 0.00 NULL NULL 58.1 53.8 86% 0 1002.8 0.01
05 15:00 S 5 0.00 NULL NULL 63.7 55.9 76% 0 1002.1 0.03
05 14:00 SW 6 0.00 NULL NULL 66.2 53.1 63% 0 1002.1 0.01
05 13:00 S 9 G 20 0.00 NULL NULL 71.1 48.6 45% 0 1000.6
05 12:00 S 9 G 18 0.00 NULL NULL 70.7 48.7 46% 0 1001.9
05 11:00 S 10 G 22 0.00 NULL NULL 70 48.9 47% 0 1002.1
05 10:00 S 9 G 21 0.00 NULL NULL 66.9 45.7 47% 0 1002.6
05 09:00 S 7 0.00 NULL NULL 60.3 41.9 51% 0 1003.7
05 08:00 S 9 G 22 0.00 NULL NULL 61 42.3 50% 0 1002.7
05 07:00 S 7 0.00 NULL NULL 59.2 42.1 53% 0 1002.7
05 06:00 S 8 0.00 NULL NULL 58.6 40.8 52% 0 1002.8
05 05:00 S 9 0.00 NULL NULL 58.3 38.3 48% 0 1002.9
05 04:00 S 10 G 21 0.00 NULL NULL 59 39.2 48% 0 1002.8
05 03:00 S 9 0.00 NULL NULL 57.9 38.7 49% 0 1002.9
05 02:00 SE 6 0.00 NULL NULL 54.9 39.2 56% 0 1003.3
05 01:00 S 7 0.00 NULL NULL 57 39.2 52% 0 1003.8
05 00:00 S 6 0.00 NULL NULL 57.7 39 50% 0 1003.9
04 23:00 SE 5 0.00 NULL NULL 54.1 41.9 63% 0 1004.3
04 22:00 SE 5 0.00 NULL NULL 56.1 43.3 62% 0 1004.6
04 21:00 S 5 0.00 NULL NULL 57.9 41.7 55% 0 1004.7
04 20:00 SE 1 0.00 NULL NULL 59.7 41.4 51% 0 1004.4
04 19:00 SE 1 0.00 NULL NULL 61.7 42.1 49% 0 1004.0
04 18:00 SW 3 0.00 NULL NULL 62.4 41 46% 0 1004.1
04 17:00 SW 6 0.00 NULL NULL 62.4 41.4 46% 0 1003.8
04 16:00 SW 6 0.00 NULL NULL 60.6 41.2 49% 0 1004.3
04 15:00 SW 7 0.00 NULL NULL 58.6 40.5 51% 0 1004.9
04 14:00 SW 7 0.00 NULL NULL 54.5 41 61% 0 1005.5
04 13:00 SW 8 0.00 NULL NULL 53.2 41.4 64% 0 1005.6
04 12:00 S 7 0.00 NULL NULL 48.4 41.4 77% 46 0 1005.8
04 11:00 S 7 0.00 NULL NULL 46.4 42.1 85% 43 0 1005.7 0.01
04 10:00 S 6 0.00 NULL NULL 43.7 42.1 94% 41 0 1005.3 0.06
04 09:00 SW 3 0.00 NULL NULL 45.1 41.7 88% 0 1005.1 0.01
04 08:00 SE 7 0.00 NULL NULL 44.2 41.4 90% 41 0 1004.5
04 07:00 SE 5 0.00 NULL NULL 40.1 38.3 93% 37 0 1004.9
04 06:00 S 6 0.00 NULL NULL 40.8 38.7 92% 37 0 1005.5 0.03
04 05:00 S 5 0.00 NULL NULL 42.1 31.3 66% 40 0 1005.6
04 04:00 S 5 0.00 NULL NULL 41.4 30.9 67% 39 0 1006.0
04 03:00 S 3 0.00 NULL NULL 41.7 29.5 62% 0 1006.1
04 01:00 SE 3 0.00 NULL NULL 37.6 25.5 62% 0 1006.7
04 00:00 S 3 0.00 NULL NULL 39.4 25.9 59% 0 1007.0
03 23:00 SE 3 0.00 NULL NULL 39.2 26.1 59% 0 1007.3
03 22:00 S 2 0.00 NULL NULL 41.2 25.7 54% 0 1007.4
03 21:00 S 2 0.00 NULL NULL 43.9 24.6 47% 0 1007.4
03 20:00 W 3 0.00 NULL NULL 48 23.2 38% 0 1007.1
03 19:00 NW 5 0.00 NULL NULL 48.9 23.5 37% 48 0 1006.9
03 18:00 NW 2 0.00 NULL NULL 48.2 24.3 39% 0 1007.2
03 17:00 W 5 0.00 NULL NULL 47.3 24.6 41% 46 0 1007.4
03 16:00 W 7 0.00 NULL NULL 46.2 25.5 44% 43 0 1007.7
03 15:00 W 6 0.00 NULL NULL 45.9 24.6 43% 43 0 1008.2
03 14:00 W 6 0.00 NULL NULL 43.7 27.1 52% 41 0 1008.6
03 13:00 W 5 0.00 NULL NULL 46.6 27.7 48% 45 0 1008.7
03 12:00 NW 5 0.00 NULL NULL 44.4 30.7 59% 42 0 1009.5
03 11:00 NW 6 0.00 NULL NULL 44.4 29.5 56% 42 0 1009.8
03 10:00 N 9 0.00 NULL NULL 44.6 30.9 59% 40 0 1010.0
03 09:00 N 5 0.00 NULL NULL 42.8 35.1 74% 41 0 1010.4
Date Time (edt) Wind (mph) Vis. (mi.) Weather Sky Cond. Air Dwpt Max. Min. Relative Humidity Wind Chill (°F) Heat Index (°F) altimeter (in) sea level (mb) 1 hr 3 hr 6 hr
6 hour
Temperature (ºF) Pressure Precipitation (in)